Flag for Canada Weather past 2 weeks in Nanaimo, British Columbia, Canada

Now
44 °F

Quite cool.


Feels Like: 39 °F
Forecast: 35 / 47 °F
Wind: 7 mph from Northwest

Location: Entrance Island

Current Time: Mar 1, 2015 at 3:58:11 PM

Latest Report: Mar 1, 2015 at 3:00 PM


Visibility: N/A

Pressure: 30.10 "Hg

Humidity: 77%

Dew point: 37 °F

Location of NanaimoLocation

Historic Weather in Nanaimo — Graph

°F

Nanaimo temperature yesterday

Maximum temperature yesterday: 50 °F (at 5:00 PM)
Minimum temperature yesterday: 43 °F (at 7:00 AM)
Average temperature yesterday: 45 °F

Past Weeks' High & Low Weather Summary

 TemperatureHumidityPressure
High51 °F (Feb 14, 5:00 PM)100% (Feb 16, 9:00 AM)30.50 "Hg (Feb 16, 9:00 AM)
Low40 °F (Mar 1, 6:00 AM)48% (Feb 28, 7:00 AM)29.78 "Hg (Feb 27, 7:00 AM)
Average45 °F81%30.27 "Hg
* Reported Feb 14 3:00 PM — Mar 1 3:00 PM, Nanaimo, Weather by CustomWeather, © 2015

Note: Actual official high and low records may vary slightly from our data, if they occured in-between our weather recording intervals... More about our weather records

Advertising

Nanaimo weather history for previous 24 hours

 ConditionsComfort  
Time TempWeatherWind HumidityBarometerVisibility
3:00 PM
Sun, Mar 1
44 °FQuite cool.7 mph77%30.10 "HgN/A
2:00 PM43 °FQuite cool.1 mph72%30.11 "HgN/A
1:00 PM45 °FQuite cool.1 mph68%30.14 "HgN/A
12:00 PM44 °FQuite cool.1 mph74%30.17 "HgN/A
11:00 AM44 °FQuite cool.1 mph74%30.19 "HgN/A
10:00 AM42 °FQuite cool.2 mph77%30.21 "HgN/A
9:00 AM43 °FQuite cool.No wind79%30.22 "HgN/A
8:00 AM42 °FQuite cool.1 mph74%30.22 "HgN/A
7:00 AM42 °FQuite cool.3 mph83%30.22 "HgN/A
6:00 AM40 °FChilly.5 mph89%30.23 "HgN/A
5:00 AM41 °FQuite cool.1 mph88%30.23 "HgN/A
4:00 AM42 °FQuite cool.No wind86%30.22 "HgN/A
3:00 AM41 °FQuite cool.3 mph78%30.23 "HgN/A
2:00 AM42 °FQuite cool.5 mph79%30.24 "HgN/A
1:00 AM43 °FQuite cool.3 mph74%30.24 "HgN/A
12:00 AM43 °FQuite cool.1 mph82%30.24 "HgN/A
11:00 PM
Sat, Feb 28
43 °FQuite cool.5 mph79%30.23 "HgN/A
10:00 PM44 °FQuite cool.2 mph74%30.22 "HgN/A
9:00 PM43 °FQuite cool.5 mph81%30.22 "HgN/A
8:00 PM44 °FQuite cool.1 mph74%30.21 "HgN/A
7:00 PM44 °FQuite cool.No wind80%30.21 "HgN/A
6:00 PM45 °FCool.No wind75%30.21 "HgN/A
5:00 PM50 °FCool.1 mph61%30.21 "HgN/A
4:00 PM48 °FCool.3 mph61%30.22 "HgN/A
3:00 PM50 °FCool.5 mph59%30.22 "HgN/A
Weather by CustomWeather, © 2015

See weather overviewHow to use our weather pages